F4ETJ-1 Weather Reports


Display with metric or nautical units.
time (UTC)temp
F
wind
direction
speed
MPH
gust
MPH
rain 1hr
in
rain 24hr
in
rain mn
in
humidity
%
barometer
mb
20260507130505 67 124 3.0 6.0 0.00 0.00 0.00 55 1010.8
20260507124103 68 59 1.0 2.0 0.00 0.00 0.00 61 1011.0
20260507122903 65 33 2.0 4.0 0.00 0.00 0.00 58 1011.1
20260507121102 66 31 3.0 6.0 0.00 0.00 0.00 60 1011.2
20260507120502 66 34 2.0 5.0 0.00 0.00 0.00 63 1011.2
20260507113500 67 119 2.0 6.0 0.00 0.00 0.00 60 1011.4
20260507111701 66 122 3.0 8.0 0.00 0.00 0.00 60 1011.6
20260507111058 65 181 3.0 5.0 0.00 0.00 0.00 60 1011.7
20260507105858 66 113 2.0 4.0 0.00 0.00 0.00 60 1011.9
20260507104657 65 103 3.0 7.0 0.00 0.00 0.00 62 1011.9
20260507104057 65 78 2.0 7.0 0.00 0.00 0.00 62 1012.0
20260507103456 65 118 2.0 4.0 0.00 0.00 0.00 63 1012.0
20260507102856 64 56 2.0 5.0 0.00 0.00 0.00 63 1012.1
20260507102256 65 131 2.0 3.0 0.00 0.00 0.00 63 1012.1
20260507101655 64 24 2.0 4.0 0.00 0.00 0.00 64 1012.1
20260507101055 64 86 3.0 4.0 0.00 0.00 0.00 65 1012.1
20260507100455 64 30 3.0 6.0 0.00 0.00 0.00 66 1012.2
20260507095856 64 86 1.0 6.0 0.00 0.00 0.00 66 1012.2
20260507094654 63 72 3.0 6.0 0.00 0.00 0.00 67 1012.2
20260507091652 62 30 2.0 4.0 0.00 0.00 0.00 71 1012.0
20260507090453 61 213 1.0 4.0 0.00 0.00 0.00 68 1012.0
20260507085251 62 164 1.0 3.0 0.00 0.00 0.00 71 1012.1
20260507084050 61 280 0.0 2.0 0.00 0.00 0.00 74 1012.1
20260507082249 59 276 0.0 2.0 0.00 0.00 0.00 76 1012.1
20260507081048 59 268 1.0 4.0 0.00 0.00 0.00 79 1012.1
20260507075247 60 308 0.0 3.0 0.00 0.00 0.00 81 1012.1
20260507074047 58 76 1.0 4.0 0.00 0.00 0.00 82 1012.2
20260507071645 56 302 0.0 3.0 0.00 0.00 0.00 88 1012.1
20260507071045 56 272 0.0 1.0 0.00 0.00 0.00 91 1012.0
20260507070445 55 272 0.0 0.0 0.00 0.00 0.00 93 1012.0
20260507063442 53 272 0.0 2.0 0.00 0.00 0.00 95 1011.8
20260507062842 52 272 0.0 1.0 0.00 0.00 0.00 95 1011.8
20260507062242 53 272 0.0 1.0 0.00 0.00 0.00 95 1011.7
20260507061641 53 272 0.0 0.0 0.00 0.00 0.00 96 1011.7
20260507061040 52 272 0.0 0.0 0.00 0.00 0.00 95 1011.7
20260507060440 51 272 0.0 0.0 0.00 0.00 0.00 96 1011.8
20260507055840 50 272 0.0 0.0 0.00 0.00 0.00 95 1011.8
20260507055241 50 272 0.0 0.0 0.00 0.00 0.00 95 1011.8
20260507054639 50 272 0.0 0.0 0.00 0.00 0.00 95 1011.7
20260507054039 49 272 0.0 0.0 0.00 0.00 0.00 95 1011.7
20260507053438 49 272 0.0 0.0 0.00 0.00 0.00 95 1011.7
20260507052838 48 272 0.0 0.0 0.00 0.00 0.00 95 1011.6
20260507052238 48 272 0.0 0.0 0.00 0.00 0.00 95 1011.6
20260507051638 48 272 0.0 0.0 0.00 0.00 0.00 95 1011.6
20260507051037 48 272 0.0 0.0 0.00 0.00 0.00 95 1011.5
20260506232943 54 276 0.0 1.0 0.00 0.70 0.70 93 1011.8
20260506232342 54 276 0.0 0.0 0.00 0.70 0.70 93 1011.8
20260506231742 54 276 0.0 0.0 0.00 0.70 0.70 92 1011.8
20260506231141 54 276 1.0 2.0 0.00 0.70 0.70 92 1011.8
20260506230541 54 276 1.0 2.0 0.00 0.70 0.70 92 1011.8
20260506225941 54 276 1.0 2.0 0.00 0.70 0.70 92 1011.7
20260506225340 54 276 1.0 2.0 0.00 0.70 0.70 92 1011.7
20260506224740 54 276 0.0 2.0 0.00 0.70 0.70 92 1011.8
20260506224140 54 276 1.0 1.0 0.00 0.70 0.70 92 1011.7
20260506223540 54 276 1.0 2.0 0.00 0.70 0.70 92 1011.7
20260506222939 54 276 1.0 2.0 0.00 0.70 0.70 92 1011.7
20260506222339 54 276 0.0 2.0 0.00 0.70 0.70 91 1011.7
20260506221738 54 276 1.0 2.0 0.00 0.70 0.70 91 1011.7
20260506221138 54 276 1.0 2.0 0.00 0.70 0.70 91 1011.6
20260506220537 54 276 0.0 1.0 0.00 0.70 0.70 91 1011.6
20260506215937 54 276 0.0 2.0 0.00 0.70 0.70 91 1011.6
20260506215337 54 276 1.0 1.0 0.00 0.70 0.70 91 1011.6
20260506214737 54 276 1.0 1.0 0.00 0.70 0.70 91 1011.6
20260506214136 54 276 1.0 2.0 0.00 0.70 0.70 91 1011.5
20260506213536 54 276 0.0 1.0 0.00 0.70 0.70 90 1011.5
20260506212936 54 276 1.0 1.0 0.00 0.70 0.70 90 1011.5
20260506212336 54 276 0.0 2.0 0.00 0.70 0.70 90 1011.6
20260506211735 54 276 0.0 1.0 0.00 0.70 0.70 90 1011.5
20260506211135 54 276 0.0 1.0 0.00 0.70 0.70 90 1011.5
20260506210534 54 276 0.0 2.0 0.00 0.70 0.70 90 1011.5
20260506205934 55 276 0.0 1.0 0.00 0.70 0.70 90 1011.5
20260506205334 55 276 0.0 2.0 0.00 0.70 0.70 90 1011.4
20260506204734 55 276 0.0 0.0 0.00 0.70 0.70 90 1011.4
20260506204133 55 276 1.0 2.0 0.00 0.70 0.70 90 1011.3
20260506203533 55 276 1.0 2.0 0.00 0.70 0.70 89 1011.3
20260506202932 55 276 2.0 2.0 0.00 0.70 0.70 89 1011.2
20260506202332 55 276 1.0 3.0 0.00 0.70 0.70 89 1011.2
20260506201732 55 276 1.0 2.0 0.00 0.70 0.70 89 1011.0
20260506201131 55 276 1.0 1.0 0.00 0.70 0.70 89 1011.0
20260506200531 55 276 1.0 2.0 0.00 0.70 0.70 89 1010.9
20260506195930 55 276 1.0 2.0 0.00 0.70 0.70 89 1010.8
20260506195330 55 276 1.0 1.0 0.00 0.70 0.70 89 1010.8
20260506194730 55 276 1.0 2.0 0.00 0.70 0.70 89 1010.7
20260506194129 55 276 1.0 2.0 0.00 0.70 0.70 88 1010.5
20260506193529 55 276 1.0 3.0 0.00 0.70 0.70 88 1010.5
20260506192929 55 276 2.0 3.0 0.00 0.70 0.70 88 1010.4
20260506192329 55 276 2.0 3.0 0.00 0.70 0.70 88 1010.4
20260506191728 55 276 2.0 3.0 0.00 0.70 0.70 88 1010.4
20260506191128 56 273 2.0 4.0 0.00 0.70 0.70 88 1010.3
20260506190527 56 274 2.0 4.0 0.00 0.70 0.70 87 1010.2
20260506185927 56 292 2.0 5.0 0.00 0.70 0.70 87 1010.2
20260506185327 56 303 2.0 4.0 0.00 0.70 0.70 87 1010.1
20260506184727 56 304 3.0 3.0 0.00 0.70 0.70 87 1010.0
20260506184126 56 298 4.0 7.0 0.00 0.70 0.70 86 1009.9
20260506183526 56 295 4.0 8.0 0.00 0.70 0.70 86 1009.9
20260506182926 56 295 4.0 7.0 0.00 0.70 0.70 86 1009.9
20260506182325 56 298 4.0 8.0 0.00 0.70 0.70 86 1009.8
20260506181725 56 297 3.0 9.0 0.00 0.70 0.70 86 1009.8
20260506181124 56 281 4.0 7.0 0.00 0.70 0.70 86 1009.7
20260506180524 56 269 6.0 9.0 0.00 0.70 0.70 86 1009.8
20260506175924 56 295 6.0 12.0 0.00 0.70 0.70 86 1009.7
20260506175323 56 309 5.0 9.0 0.00 0.70 0.70 86 1009.6
20260506174723 56 307 4.0 9.0 0.00 0.70 0.70 86 1009.5
20260506174122 56 297 5.0 8.0 0.00 0.70 0.70 86 1009.4
20260506173522 56 271 5.0 8.0 0.00 0.70 0.70 86 1009.4
20260506172922 56 282 3.0 9.0 0.00 0.70 0.70 86 1009.3
20260506172321 56 284 3.0 6.0 0.00 0.70 0.70 86 1009.3
20260506171721 56 279 3.0 7.0 0.00 0.70 0.70 86 1009.3
20260506171121 56 278 3.0 6.0 0.00 0.70 0.70 86 1009.2
20260506170520 56 279 3.0 4.0 0.00 0.70 0.70 86 1009.2
20260506165920 56 286 4.0 6.0 0.00 0.70 0.70 85 1009.2
20260506165320 57 297 4.0 9.0 0.00 0.70 0.70 85 1009.1
20260506164719 57 301 3.0 5.0 0.00 0.70 0.70 86 1009.1
20260506164119 57 284 2.0 5.0 0.00 0.70 0.70 87 1009.1
20260506163519 57 303 3.0 5.0 0.00 0.70 0.70 87 1009.0
20260506162918 57 297 3.0 6.0 0.00 0.70 0.70 87 1009.0
20260506162318 57 309 4.0 7.0 0.00 0.70 0.70 87 1008.9
20260506161718 57 290 4.0 7.0 0.00 0.70 0.70 87 1008.9
20260506161118 57 289 4.0 8.0 0.00 0.70 0.70 87 1008.9
20260506160517 57 285 5.0 10.0 0.01 0.70 0.70 86 1009.0
20260506155917 57 293 6.0 10.0 0.01 0.70 0.70 86 1008.9
20260506155316 57 291 7.0 13.0 0.01 0.70 0.70 85 1008.9
20260506154716 58 344 6.0 10.0 0.01 0.70 0.70 85 1008.8
20260506154116 58 301 6.0 11.0 0.02 0.70 0.70 86 1008.8
20260506153515 57 326 4.0 8.0 0.02 0.70 0.70 87 1008.8
20260506152915 57 311 3.0 5.0 0.02 0.70 0.70 89 1008.8
20260506152315 57 326 3.0 5.0 0.02 0.70 0.70 89 1008.7
20260506151714 56 305 3.0 7.0 0.03 0.70 0.70 89 1008.7
20260506151114 56 297 3.0 6.0 0.04 0.70 0.70 89 1008.6
20260506150514 56 325 3.0 6.0 0.04 0.69 0.69 89 1008.6
20260506145913 56 320 3.0 7.0 0.04 0.69 0.69 90 1008.6
20260506145313 56 297 1.0 6.0 0.04 0.69 0.69 91 1008.7
20260506144713 57 24 0.0 1.0 0.04 0.69 0.69 91 1008.6
20260506144112 57 24 0.0 2.0 0.05 0.68 0.68 91 1008.6
20260506143512 57 22 0.0 1.0 0.09 0.68 0.68 91 1008.6
20260506142912 56 19 1.0 4.0 0.10 0.68 0.68 90 1008.7
20260506142311 56 315 1.0 3.0 0.16 0.68 0.68 91 1008.6
20260506141711 57 45 1.0 2.0 0.20 0.67 0.67 91 1008.6
20260506141111 57 51 0.0 2.0 0.19 0.66 0.66 91 1008.5
20260506140510 57 51 1.0 1.0 0.20 0.65 0.65 91 1008.5
20260506135910 56 51 1.0 2.0 0.21 0.65 0.65 91 1008.5
20260506135310 56 49 1.0 1.0 0.23 0.65 0.65 91 1008.5
20260506134709 56 49 2.0 2.0 0.32 0.65 0.65 91 1008.5
20260506134109 56 44 2.0 5.0 0.32 0.63 0.63 91 1008.5
20260506133509 56 322 2.0 3.0 0.28 0.59 0.59 91 1008.4
20260506132908 56 247 1.0 4.0 0.28 0.58 0.58 90 1008.4
20260506132308 56 272 0.0 1.0 0.22 0.52 0.52 90 1008.4
20260506131707 56 272 1.0 2.0 0.17 0.47 0.47 90 1008.4
20260506131107 56 272 1.0 2.0 0.17 0.47 0.47 90 1008.3